Location: Churchill Northern Studies Centre
(58.7378°N, 93.8201°W)
Time: 06:45:46
(UTC-05:00)

N. Korean satellite - Pass Details

Date: 12 October 2017
Orbit: 459 x 517 km, 97.2° (Epoch: 22 October)

Event Time Altitude Azimuth Distance (km) Brightness Sun altitude
Rises 19:14:21 0° 174° (S) 2,545 10.2 -8.3°
Reaches altitude 10° 19:16:27 10° 178° (S) 1,660 9.3 -8.6°
Maximum altitude 19:19:57 57° 258° (WSW) 568 7.3 -9.0°
Drops below altitude 10° 19:23:27 10° 339° (NNW) 1,645 9.5 -9.5°
Sets 19:25:31 0° 343° (NNW) 2,520 10.4 -9.7°
